TimeEDT,TemperatureF,Dew PointF,Humidity,Sea Level PressureIn,VisibilityMPH,Wind Direction,Wind SpeedMPH,Gust SpeedMPH,PrecipitationIn,Events,Conditions,WindDirDegrees,DateUTC
12:15 AM,64.4,62.6,94,30.09,7.0,Calm,Calm,-,N/A,,Clear,0,2013-05-18 04:15:00
12:35 AM,64.4,62.6,94,30.09,7.0,Calm,Calm,-,N/A,,Clear,0,2013-05-18 04:35:00
12:53 AM,68.0,64.0,87,30.08,-9999.0,East,3.5,-,0.01,,Unknown,100,2013-05-18 04:53:00
12:55 AM,64.4,64.4,100,30.10,10.0,East,3.5,-,N/A,,Clear,100,2013-05-18 04:55:00
1:15 AM,64.4,62.6,94,30.10,5.0,Calm,Calm,-,N/A,,Clear,0,2013-05-18 05:15:00
1:35 AM,62.6,62.6,100,30.09,5.0,Calm,Calm,-,N/A,,Clear,0,2013-05-18 05:35:00
1:53 AM,66.0,62.1,87,30.08,-9999.0,Calm,Calm,-,0.02,,Unknown,0,2013-05-18 05:53:00
1:55 AM,64.4,62.6,94,30.09,5.0,Calm,Calm,-,N/A,,Clear,0,2013-05-18 05:55:00
2:15 AM,64.4,62.6,94,30.09,4.0,Calm,Calm,-,N/A,,Clear,0,2013-05-18 06:15:00
2:35 AM,64.4,62.6,94,30.09,7.0,Calm,Calm,-,N/A,,Clear,0,2013-05-18 06:35:00
2:53 AM,64.9,62.1,90,30.07,-9999.0,ESE,3.5,-,N/A,,Unknown,120,2013-05-18 06:53:00
2:55 AM,62.6,62.6,100,30.09,5.0,ESE,3.5,-,N/A,,Clear,120,2013-05-18 06:55:00
3:15 AM,64.4,62.6,94,30.09,7.0,Calm,Calm,-,N/A,,Clear,0,2013-05-18 07:15:00
3:35 AM,62.6,62.6,100,30.08,0.2,Calm,Calm,-,N/A,Fog,Fog,0,2013-05-18 07:35:00
3:53 AM,63.0,61.0,93,30.07,-9999.0,Calm,Calm,-,N/A,,Unknown,0,2013-05-18 07:53:00
3:55 AM,62.6,62.6,100,30.08,0.5,Calm,Calm,-,N/A,Fog,Fog,0,2013-05-18 07:55:00
4:15 AM,60.8,60.8,100,30.08,1.5,Calm,Calm,-,N/A,,Mist,0,2013-05-18 08:15:00
4:35 AM,62.6,62.6,100,30.08,2.0,Calm,Calm,-,N/A,,Clear,0,2013-05-18 08:35:00
4:53 AM,64.0,61.0,90,30.06,-9999.0,Calm,Calm,-,0.02,,Unknown,0,2013-05-18 08:53:00
4:55 AM,62.6,62.6,100,30.08,1.0,Calm,Calm,-,N/A,,Mist,0,2013-05-18 08:55:00
5:15 AM,60.8,60.8,100,30.08,0.2,Calm,Calm,-,N/A,Fog,Fog,0,2013-05-18 09:15:00
5:35 AM,60.8,59.0,94,30.09,0.2,Calm,Calm,-,N/A,Fog,Fog,0,2013-05-18 09:35:00
5:53 AM,62.1,61.0,96,30.09,-9999.0,Calm,Calm,-,0.01,,Unknown,0,2013-05-18 09:53:00
5:55 AM,60.8,60.8,100,30.10,0.5,Calm,Calm,-,N/A,Fog,Fog,0,2013-05-18 09:55:00
6:15 AM,60.8,60.8,100,30.10,0.8,Calm,Calm,-,N/A,,Mostly Cloudy,0,2013-05-18 10:15:00
6:35 AM,60.8,59.0,94,30.11,0.2,Calm,Calm,-,N/A,Fog,Fog,0,2013-05-18 10:35:00
6:53 AM,61.0,59.0,93,30.10,-9999.0,Calm,Calm,-,N/A,,Unknown,0,2013-05-18 10:53:00
6:55 AM,60.8,59.0,94,30.11,1.0,Calm,Calm,-,N/A,,Mist,0,2013-05-18 10:55:00
7:15 AM,60.8,60.8,100,30.11,1.2,Calm,Calm,-,N/A,,Mist,0,2013-05-18 11:15:00
7:35 AM,60.8,60.8,100,30.12,1.8,Calm,Calm,-,N/A,,Mist,0,2013-05-18 11:35:00
7:53 AM,66.0,64.0,93,30.11,-9999.0,Calm,Calm,-,N/A,,Unknown,0,2013-05-18 11:53:00
7:55 AM,64.4,62.6,94,30.12,2.0,Calm,Calm,-,N/A,,Clear,0,2013-05-18 11:55:00
8:15 AM,66.2,64.4,94,30.13,4.0,Calm,Calm,-,N/A,,Clear,0,2013-05-18 12:15:00
8:35 AM,68.0,68.0,100,30.13,7.0,Calm,Calm,-,N/A,,Clear,0,2013-05-18 12:35:00
8:53 AM,75.0,66.9,76,30.13,-9999.0,Calm,Calm,-,0.01,,Unknown,0,2013-05-18 12:53:00
8:55 AM,69.8,68.0,94,30.14,10.0,Calm,Calm,-,N/A,,Clear,0,2013-05-18 12:55:00
9:15 AM,71.6,68.0,88,30.14,10.0,Calm,Calm,-,N/A,,Clear,0,2013-05-18 13:15:00
9:35 AM,73.4,68.0,83,30.14,10.0,Calm,Calm,-,N/A,,Clear,0,2013-05-18 13:35:00
9:53 AM,79.0,66.0,64,30.12,-9999.0,Calm,Calm,-,N/A,,Unknown,0,2013-05-18 13:53:00
9:55 AM,77.0,66.2,69,30.14,10.0,Calm,Calm,-,N/A,,Clear,0,2013-05-18 13:55:00
10:15 AM,77.0,64.4,65,30.13,10.0,Calm,Calm,-,N/A,,Clear,0,2013-05-18 14:15:00
10:35 AM,77.0,64.4,65,30.13,10.0,West,4.6,-,N/A,,Clear,260,2013-05-18 14:35:00
10:53 AM,81.0,66.9,62,30.12,-9999.0,WSW,4.6,-,N/A,,Unknown,240,2013-05-18 14:53:00
10:55 AM,78.8,64.4,61,30.13,10.0,SW,4.6,-,N/A,,Clear,220,2013-05-18 14:55:00
11:15 AM,78.8,64.4,61,30.13,10.0,WSW,3.5,-,N/A,,Clear,240,2013-05-18 15:15:00
11:35 AM,78.8,64.4,61,30.13,10.0,West,4.6,-,N/A,,Clear,270,2013-05-18 15:35:00
11:53 AM,82.9,64.9,54,30.12,-9999.0,SW,4.6,-,N/A,,Unknown,220,2013-05-18 15:53:00
11:55 AM,80.6,64.4,58,30.13,10.0,SW,4.6,-,N/A,,Clear,230,2013-05-18 15:55:00
12:15 PM,82.4,62.6,51,30.13,10.0,NNW,3.5,-,N/A,,Scattered Clouds,330,2013-05-18 16:15:00
12:35 PM,82.4,62.6,51,30.13,10.0,SW,3.5,-,N/A,,Scattered Clouds,220,2013-05-18 16:35:00
12:53 PM,86.0,64.9,49,30.10,-9999.0,Calm,Calm,-,N/A,,Unknown,0,2013-05-18 16:53:00
12:55 PM,82.4,62.6,51,30.12,10.0,Calm,Calm,-,N/A,,Clear,0,2013-05-18 16:55:00
1:15 PM,84.2,62.6,48,30.11,10.0,Calm,Calm,-,N/A,,Scattered Clouds,0,2013-05-18 17:15:00
1:35 PM,82.4,60.8,48,30.11,10.0,SSW,5.8,-,N/A,,Scattered Clouds,200,2013-05-18 17:35:00
1:53 PM,86.0,63.0,46,30.09,-9999.0,Variable,3.5,-,N/A,,Unknown,0,2013-05-18 17:53:00
1:55 PM,82.4,60.8,48,30.10,10.0,SW,4.6,-,N/A,,Mostly Cloudy,230,2013-05-18 17:55:00
2:15 PM,86.0,60.8,43,30.10,10.0,South,3.5,-,N/A,,Mostly Cloudy,180,2013-05-18 18:15:00
2:35 PM,82.4,60.8,48,30.09,10.0,WSW,3.5,-,N/A,,Mostly Cloudy,240,2013-05-18 18:35:00
2:53 PM,86.0,64.0,48,30.07,-9999.0,Calm,Calm,-,N/A,,Unknown,0,2013-05-18 18:53:00
2:55 PM,82.4,62.6,51,30.08,10.0,Calm,Calm,-,N/A,,Mostly Cloudy,0,2013-05-18 18:55:00
3:15 PM,82.4,62.6,51,30.08,10.0,WSW,6.9,-,N/A,,Scattered Clouds,240,2013-05-18 19:15:00
3:35 PM,86.0,62.6,45,30.08,10.0,WSW,9.2,-,N/A,,Scattered Clouds,240,2013-05-18 19:35:00
3:53 PM,86.0,63.0,46,30.06,-9999.0,West,4.6,-,N/A,,Unknown,260,2013-05-18 19:53:00
3:55 PM,84.2,60.8,45,30.08,10.0,West,4.6,-,N/A,,Clear,270,2013-05-18 19:55:00
4:15 PM,86.0,60.8,43,30.07,10.0,West,9.2,-,N/A,,Scattered Clouds,260,2013-05-18 20:15:00
4:35 PM,86.0,60.8,43,30.07,10.0,WSW,3.5,-,N/A,,Scattered Clouds,250,2013-05-18 20:35:00
4:53 PM,84.9,62.1,46,30.04,-9999.0,SW,3.5,-,N/A,,Unknown,230,2013-05-18 20:53:00
4:55 PM,82.4,60.8,48,30.05,10.0,SSW,3.5,-,N/A,,Clear,210,2013-05-18 20:55:00
5:15 PM,84.2,60.8,45,30.04,10.0,SSW,6.9,-,N/A,,Clear,200,2013-05-18 21:15:00
5:35 PM,82.4,60.8,48,30.03,10.0,SSW,6.9,-,N/A,,Clear,200,2013-05-18 21:35:00
5:53 PM,84.9,62.1,46,30.03,-9999.0,SW,9.2,-,N/A,,Unknown,220,2013-05-18 21:53:00
5:55 PM,82.4,60.8,48,30.04,10.0,SW,8.1,-,N/A,,Clear,220,2013-05-18 21:55:00
6:15 PM,82.4,60.8,48,30.04,10.0,WSW,8.1,-,N/A,,Clear,240,2013-05-18 22:15:00
6:35 PM,80.6,60.8,51,30.04,10.0,WSW,6.9,-,N/A,,Clear,250,2013-05-18 22:35:00
6:53 PM,82.9,62.1,49,30.03,-9999.0,West,8.1,-,N/A,,Unknown,280,2013-05-18 22:53:00
6:55 PM,80.6,60.8,51,30.05,10.0,West,8.1,-,N/A,,Clear,280,2013-05-18 22:55:00
7:15 PM,80.6,60.8,51,30.04,10.0,West,6.9,-,N/A,,Clear,270,2013-05-18 23:15:00
7:35 PM,78.8,60.8,54,30.05,10.0,WNW,5.8,-,N/A,,Clear,290,2013-05-18 23:35:00
7:53 PM,79.0,63.0,58,30.04,-9999.0,West,4.6,-,N/A,,Unknown,260,2013-05-18 23:53:00
7:55 PM,77.0,62.6,61,30.05,10.0,West,4.6,-,N/A,,Clear,260,2013-05-18 23:55:00
8:15 PM,75.2,62.6,65,30.05,10.0,West,4.6,-,N/A,,Clear,270,2013-05-19 00:15:00
8:35 PM,73.4,62.6,69,30.06,10.0,West,3.5,-,N/A,,Clear,260,2013-05-19 00:35:00
8:53 PM,75.0,64.0,69,30.05,-9999.0,Calm,Calm,-,0.01,,Unknown,0,2013-05-19 00:53:00
8:55 PM,73.4,62.6,69,30.06,10.0,Calm,Calm,-,N/A,,Clear,0,2013-05-19 00:55:00
9:15 PM,73.4,62.6,69,30.06,10.0,Calm,Calm,-,N/A,,Clear,0,2013-05-19 01:15:00
9:35 PM,71.6,62.6,73,30.06,10.0,Calm,Calm,-,N/A,,Clear,0,2013-05-19 01:35:00
9:53 PM,70.0,63.0,78,30.06,-9999.0,Calm,Calm,-,N/A,,Unknown,0,2013-05-19 01:53:00
9:55 PM,69.8,62.6,78,30.07,10.0,Calm,Calm,-,N/A,,Scattered Clouds,0,2013-05-19 01:55:00
10:15 PM,69.8,64.4,83,30.08,10.0,Calm,Calm,-,N/A,,Scattered Clouds,0,2013-05-19 02:15:00
10:35 PM,68.0,64.4,88,30.08,10.0,Calm,Calm,-,N/A,,Mostly Cloudy,0,2013-05-19 02:35:00
10:53 PM,69.1,63.0,81,30.07,-9999.0,Calm,Calm,-,N/A,,Unknown,0,2013-05-19 02:53:00
10:55 PM,68.0,62.6,83,30.08,10.0,Calm,Calm,-,N/A,,Scattered Clouds,0,2013-05-19 02:55:00
11:15 PM,68.0,62.6,83,30.08,10.0,Calm,Calm,-,N/A,,Scattered Clouds,0,2013-05-19 03:15:00
11:35 PM,68.0,62.6,83,30.08,10.0,Calm,Calm,-,N/A,,Clear,0,2013-05-19 03:35:00
11:53 PM,71.1,63.0,75,30.07,-9999.0,NE,3.5,-,N/A,,Unknown,50,2013-05-19 03:53:00
11:55 PM,69.8,62.6,78,30.08,4.0,Calm,Calm,-,N/A,,Haze,0,2013-05-19 03:55:00